Time,TemperatureF,DewpointF,PressureIn,WindDirection,WindDirectionDegrees,WindSpeedMPH,WindSpeedGustMPH,Humidity,HourlyPrecipIn,Conditions,Clouds,dailyrainin,SolarRadiationWatts/m^2,SoftwareType,DateUTC
2013-03-04 00:00:00,24.0,16.0,-100.00,ENE,67,5.0,-999.0,70,-99.99,,,-99.99,0.000000,,2013-03-04 05:00:00,
2013-03-04 00:43:00,24.0,16.0,-100.00,ENE,67,5.0,-999.0,70,-99.99,,,-99.99,0.000000,,2013-03-04 05:43:00,
2013-03-04 00:52:00,24.0,16.0,-100.00,ENE,67,5.0,-999.0,70,-99.99,,,-99.99,0.000000,,2013-03-04 05:52:00,
2013-03-04 01:00:00,24.0,16.0,-100.00,NNE,22,4.0,-999.0,71,-99.99,,,-99.99,0.000000,,2013-03-04 06:00:00,
2013-03-04 01:32:00,24.0,16.0,-100.00,NNE,22,4.0,-999.0,71,-99.99,,,-99.99,0.000000,,2013-03-04 06:32:00,
2013-03-04 01:42:00,24.0,16.0,-100.00,NNE,22,4.0,-999.0,71,-99.99,,,-99.99,0.000000,,2013-03-04 06:42:00,
2013-03-04 01:52:00,24.0,16.0,-100.00,NNE,22,4.0,-999.0,71,-99.99,,,-99.99,0.000000,,2013-03-04 06:52:00,
2013-03-04 02:00:00,23.0,16.0,-100.00,NNE,22,1.0,-999.0,73,-99.99,,,-99.99,0.000000,,2013-03-04 07:00:00,
2013-03-04 02:42:00,23.0,16.0,-100.00,NNE,22,1.0,-999.0,73,-99.99,,,-99.99,0.000000,,2013-03-04 07:42:00,
2013-03-04 02:52:00,23.0,16.0,-100.00,NNE,22,1.0,-999.0,73,-99.99,,,-99.99,0.000000,,2013-03-04 07:52:00,
2013-03-04 03:00:00,23.0,16.0,-100.00,ENE,67,1.0,-999.0,76,-99.99,,,-99.99,0.000000,,2013-03-04 08:00:00,
2013-03-04 03:42:00,23.0,16.0,-100.00,ENE,67,1.0,-999.0,76,-99.99,,,-99.99,0.000000,,2013-03-04 08:42:00,
2013-03-04 03:52:00,23.0,16.0,-100.00,ENE,67,1.0,-999.0,76,-99.99,,,-99.99,0.000000,,2013-03-04 08:52:00,
2013-03-04 04:00:00,22.0,16.0,-100.00,East,90,2.0,-999.0,77,-99.99,,,-99.99,0.000000,,2013-03-04 09:00:00,
2013-03-04 04:42:00,22.0,16.0,-100.00,East,90,2.0,-999.0,77,-99.99,,,-99.99,0.000000,,2013-03-04 09:42:00,
2013-03-04 04:52:00,22.0,16.0,-100.00,East,90,2.0,-999.0,77,-99.99,,,-99.99,0.000000,,2013-03-04 09:52:00,
2013-03-04 05:00:00,20.0,14.0,-100.00,East,90,1.0,-999.0,77,-99.99,,,-99.99,0.000000,,2013-03-04 10:00:00,
2013-03-04 05:42:00,20.0,14.0,-100.00,East,90,1.0,-999.0,77,-99.99,,,-99.99,0.000000,,2013-03-04 10:42:00,
2013-03-04 05:52:00,20.0,14.0,-100.00,East,90,1.0,-999.0,77,-99.99,,,-99.99,0.000000,,2013-03-04 10:52:00,
2013-03-04 06:00:00,19.0,14.0,-100.00,East,90,1.0,-999.0,81,-99.99,,,-99.99,0.000000,,2013-03-04 11:00:00,
2013-03-04 06:42:00,19.0,14.0,-100.00,East,90,1.0,-999.0,81,-99.99,,,-99.99,0.000000,,2013-03-04 11:42:00,
2013-03-04 06:52:00,19.0,14.0,-100.00,East,90,1.0,-999.0,81,-99.99,,,-99.99,0.000000,,2013-03-04 11:52:00,
2013-03-04 07:00:00,18.0,14.0,-100.00,East,90,0.0,-999.0,86,-99.99,,,-99.99,0.000000,,2013-03-04 12:00:00,
2013-03-04 07:42:00,18.0,14.0,-100.00,East,90,0.0,-999.0,86,-99.99,,,-99.99,0.000000,,2013-03-04 12:42:00,
2013-03-04 07:53:00,18.0,14.0,-100.00,East,90,0.0,-999.0,86,-99.99,,,-99.99,0.000000,,2013-03-04 12:53:00,
2013-03-04 08:00:00,18.0,15.0,-100.00,East,90,0.0,-999.0,88,-99.99,,,-99.99,39.439999,,2013-03-04 13:00:00,
2013-03-04 08:42:00,18.0,15.0,-100.00,East,90,0.0,-999.0,88,-99.99,,,-99.99,39.439999,,2013-03-04 13:42:00,
2013-03-04 08:52:00,18.0,15.0,-100.00,East,90,0.0,-999.0,88,-99.99,,,-99.99,39.439999,,2013-03-04 13:52:00,
2013-03-04 09:00:00,21.0,16.0,-100.00,SE,135,3.0,-999.0,82,-99.99,,,-99.99,136.880005,,2013-03-04 14:00:00,
2013-03-04 09:42:00,21.0,16.0,-100.00,SE,135,3.0,-999.0,82,-99.99,,,-99.99,136.880005,,2013-03-04 14:42:00,
2013-03-04 09:52:00,21.0,16.0,-100.00,SE,135,3.0,-999.0,82,-99.99,,,-99.99,136.880005,,2013-03-04 14:52:00,
2013-03-04 10:00:00,24.0,17.0,-100.00,SE,135,4.0,-999.0,73,-99.99,,,-99.99,322.480011,,2013-03-04 15:00:00,
2013-03-04 10:42:00,24.0,17.0,-100.00,SE,135,4.0,-999.0,73,-99.99,,,-99.99,322.480011,,2013-03-04 15:42:00,
2013-03-04 10:52:00,24.0,17.0,-100.00,SE,135,4.0,-999.0,73,-99.99,,,-99.99,322.480011,,2013-03-04 15:52:00,
2013-03-04 11:00:00,27.0,17.0,-100.00,ESE,112,7.0,-999.0,63,-99.99,,,-99.99,511.559998,,2013-03-04 16:00:00,
2013-03-04 11:42:00,27.0,17.0,-100.00,ESE,112,7.0,-999.0,63,-99.99,,,-99.99,511.559998,,2013-03-04 16:42:00,
2013-03-04 11:52:00,27.0,17.0,-100.00,ESE,112,7.0,-999.0,63,-99.99,,,-99.99,511.559998,,2013-03-04 16:52:00,
2013-03-04 12:00:00,30.0,17.0,-100.00,ESE,112,7.0,-999.0,58,-99.99,,,-99.99,584.640015,,2013-03-04 17:00:00,
2013-03-04 12:42:00,30.0,17.0,-100.00,ESE,112,7.0,-999.0,58,-99.99,,,-99.99,584.640015,,2013-03-04 17:42:00,
2013-03-04 12:52:00,30.0,17.0,-100.00,ESE,112,7.0,-999.0,58,-99.99,,,-99.99,584.640015,,2013-03-04 17:52:00,
2013-03-04 13:00:00,31.0,16.0,-100.00,ESE,112,8.0,-999.0,53,-99.99,,,-99.99,505.760010,,2013-03-04 18:00:00,
2013-03-04 13:42:00,31.0,16.0,-100.00,ESE,112,8.0,-999.0,53,-99.99,,,-99.99,505.760010,,2013-03-04 18:42:00,
2013-03-04 13:52:00,31.0,16.0,-100.00,ESE,112,8.0,-999.0,53,-99.99,,,-99.99,505.760010,,2013-03-04 18:52:00,
2013-03-04 14:00:00,32.0,16.0,-100.00,ESE,112,7.0,-999.0,50,-99.99,,,-99.99,397.880005,,2013-03-04 19:00:00,
2013-03-04 14:42:00,32.0,16.0,-100.00,ESE,112,7.0,-999.0,50,-99.99,,,-99.99,397.880005,,2013-03-04 19:42:00,
2013-03-04 14:52:00,32.0,16.0,-100.00,ESE,112,7.0,-999.0,50,-99.99,,,-99.99,397.880005,,2013-03-04 19:52:00,
2013-03-04 15:00:00,34.0,16.0,-100.00,SE,135,6.0,-999.0,48,-99.99,,,-99.99,480.239990,,2013-03-04 20:00:00,
2013-03-04 15:32:00,34.0,16.0,-100.00,SE,135,6.0,-999.0,48,-99.99,,,-99.99,480.239990,,2013-03-04 20:32:00,
2013-03-04 15:42:00,34.0,16.0,-100.00,SE,135,6.0,-999.0,48,-99.99,,,-99.99,480.239990,,2013-03-04 20:42:00,
2013-03-04 15:52:00,34.0,16.0,-100.00,SE,135,6.0,-999.0,48,-99.99,,,-99.99,480.239990,,2013-03-04 20:52:00,
2013-03-04 16:00:00,34.0,15.0,-100.00,SSE,157,6.0,-999.0,44,-99.99,,,-99.99,313.200012,,2013-03-04 21:00:00,
2013-03-04 16:43:00,34.0,15.0,-100.00,SSE,157,6.0,-999.0,44,-99.99,,,-99.99,313.200012,,2013-03-04 21:43:00,
2013-03-04 16:53:00,34.0,15.0,-100.00,SSE,157,6.0,-999.0,44,-99.99,,,-99.99,313.200012,,2013-03-04 21:53:00,
2013-03-04 17:00:00,34.0,16.0,-100.00,SE,135,7.0,-999.0,46,-99.99,,,-99.99,233.160004,,2013-03-04 22:00:00,
2013-03-04 17:43:00,34.0,16.0,-100.00,SE,135,7.0,-999.0,46,-99.99,,,-99.99,233.160004,,2013-03-04 22:43:00,
2013-03-04 17:52:00,34.0,16.0,-100.00,SE,135,7.0,-999.0,46,-99.99,,,-99.99,233.160004,,2013-03-04 22:52:00,
2013-03-04 18:00:00,33.0,17.0,-100.00,SE,135,7.0,-999.0,50,-99.99,,,-99.99,74.239998,,2013-03-04 23:00:00,
2013-03-04 18:42:00,33.0,17.0,-100.00,SE,135,7.0,-999.0,50,-99.99,,,-99.99,74.239998,,2013-03-04 23:42:00,
2013-03-04 18:52:00,33.0,17.0,-100.00,SE,135,7.0,-999.0,50,-99.99,,,-99.99,74.239998,,2013-03-04 23:52:00,
2013-03-04 19:00:00,32.0,17.0,-100.00,SE,135,6.0,-999.0,53,-99.99,,,-99.99,16.240000,,2013-03-05 00:00:00,
2013-03-04 19:42:00,32.0,17.0,-100.00,SE,135,6.0,-999.0,53,-99.99,,,-99.99,16.240000,,2013-03-05 00:42:00,
2013-03-04 19:52:00,32.0,17.0,-100.00,SE,135,6.0,-999.0,53,-99.99,,,-99.99,16.240000,,2013-03-05 00:52:00,
2013-03-04 21:00:00,31.0,17.0,-100.00,SE,135,5.0,-999.0,55,-99.99,,,-99.99,0.000000,,2013-03-05 02:00:00,
2013-03-04 21:42:00,31.0,17.0,-100.00,SE,135,5.0,-999.0,55,-99.99,,,-99.99,0.000000,,2013-03-05 02:42:00,
2013-03-04 21:52:00,31.0,17.0,-100.00,SE,135,5.0,-999.0,55,-99.99,,,-99.99,0.000000,,2013-03-05 02:52:00,
2013-03-04 22:00:00,31.0,17.0,-100.00,SE,135,5.0,-999.0,57,-99.99,,,-99.99,0.000000,,2013-03-05 03:00:00,
2013-03-04 22:42:00,31.0,17.0,-100.00,SE,135,5.0,-999.0,57,-99.99,,,-99.99,0.000000,,2013-03-05 03:42:00,
2013-03-04 22:52:00,31.0,17.0,-100.00,SE,135,5.0,-999.0,57,-99.99,,,-99.99,0.000000,,2013-03-05 03:52:00,
2013-03-04 23:00:00,31.0,18.0,-100.00,SE,135,6.0,-999.0,58,-99.99,,,-99.99,0.000000,,2013-03-05 04:00:00,
2013-03-04 23:42:00,31.0,18.0,-100.00,SE,135,6.0,-999.0,58,-99.99,,,-99.99,0.000000,,2013-03-05 04:42:00,
2013-03-04 23:52:00,31.0,18.0,-100.00,SE,135,6.0,-999.0,58,-99.99,,,-99.99,0.000000,,2013-03-05 04:52:00,